Location: Hamilton
(37.7830°S, 175.2830°E)
Time: 23:35:43
(UTC+13:00)

Cosmos 2237 Rocket - Pass Details

Date: 24 January 2019
Orbit: 833 x 851 km, 71.0° (Epoch: 22 February)

Event Time Altitude Azimuth Distance (km) Brightness Sun altitude
Exits shadow 23:51:07 29° 117° (ESE) 1,508 3.4 -28.4°
Drops below altitude 10° 23:54:22 10° 142° (SE) 2,487 4.9 -28.6°
Sets 23:56:58 0° 149° (SSE) 3,426 5.8 -28.9°
